Home   Weather   Alofi   Past weeks
Flag for Niue

Past Weather in Alofi, Niue — Yesterday and Last 2 Weeks

Now
77 °F

Warm.


Feels Like: 78 °F
Forecast: 84 / 76 °F
Wind: 1 mph from Northwest

Location: Alofi / Niue

Current Time: Jan 23, 2019 at 2:43:00 am

Latest Report: Jan 23, 2019 at 2:00 am


Visibility: N/A

Pressure: 29.71 "Hg

Humidity: 94%

Dew Point: 75 °F

Location of AlofiLocation

Past Weather in Alofi — Graph

°F

Alofi Temperature Yesterday

Maximum temperature yesterday: 82 °F (at 1:00 pm)
Minimum temperature yesterday: 75 °F (at 11:00 pm)
Average temperature yesterday: 80 °F

High & Low Weather Summary for the Past Weeks

 TemperatureHumidityPressure
High88 °F (Jan 14, 12:00 pm)100% (Jan 8, 6:00 am)29.95 "Hg (Jan 8, 6:00 am)
Low68 °F (Jan 18, 1:00 pm)18% (Jan 18, 11:00 am)29.53 "Hg (Jan 12, 9:00 am)
Average81 °F87%29.79 "Hg
* Reported Jan 8 1:00 am — Jan 23 1:00 am, Alofi. Weather by CustomWeather, © 2019

Note: Actual official high and low records may vary slightly from our data, if they occured in-between our weather recording intervals... More about our weather records

Advertising

Alofi Weather History for the Previous 24 Hours

Scroll right to see more
 ConditionsComfort  
Time TempWeatherWind HumidityBarometerVisibility
1:00 am
Wed, Jan 23
75 °FMild.1 mph100%29.74 "HgN/A
12:00 am75 °FMild.No wind100%29.74 "HgN/A
11:00 pm
Tue, Jan 22
75 °FMild.1 mph100%29.77 "HgN/A
10:00 pm77 °FWarm.1 mph94%29.74 "HgN/A
9:00 pm77 °FWarm.2 mph94%29.74 "HgN/A
8:00 pm79 °FWarm.1 mph94%29.71 "HgN/A
7:00 pm79 °FWarm.1 mph94%29.71 "HgN/A
6:00 pm81 °FWarm.2 mph89%29.68 "HgN/A
5:00 pm81 °FWarm.3 mph89%29.68 "HgN/A
4:00 pm82 °FBroken clouds.3 mph84%N/AN/A
3:00 pm82 °FBroken clouds.3 mph84%29.71 "HgN/A
2:00 pm82 °FBroken clouds.5 mph84%29.71 "HgN/A
1:00 pm82 °FWarm.2 mph84%29.71 "HgN/A
11:00 am81 °FBroken clouds.6 mph89%29.74 "HgN/A
10:00 am79 °FDrizzle. Broken clouds.5 mph94%29.74 "HgN/A
9:00 am77 °FSprinkles. Broken clouds.3 mph94%N/AN/A
8:00 am77 °FWarm.5 mph94%29.74 "HgN/A
7:00 am77 °FWarm.5 mph94%29.74 "HgN/A
6:00 am81 °FWarm.5 mph94%29.71 "HgN/A
5:00 am81 °FWarm.6 mph94%29.71 "HgN/A
4:00 am81 °FWarm.6 mph94%29.68 "HgN/A
3:00 am81 °FWarm.6 mph94%29.68 "HgN/A
2:00 am81 °FWarm.5 mph94%29.71 "HgN/A
Weather by CustomWeather, © 2019

See weather overview